Weather Roundup
Issued by NWS Chicago, IL

Home | Current Version | Previous Version | Graphics & Text | Print | Product List | Glossary On
Versions: 1 2 3 4 5 6 7 8 9 10 11 12 13 14 15 16 17 18 19 20 21 22 23 24 25 26 27 28 29 30 31 32 33 34 35 36 37 38 39 40 41 42 43 44 45 46 47 48 49 50
000
NZUS59 KLOT 212112
HRRLOT

CHICAGO AREA WEATHER ROUNDUP
NATIONAL WEATHER SERVICE CHICAGO/ROMEOVILLE IL
300 PM CST SAT JAN 21 2017

NOTE: "FAIR" INDICATES FEW OR NO CLOUDS BELOW 12,000 FEET WITH NO
SIGNIFICANT WEATHER AND/OR OBSTRUCTIONS TO VISIBILITY.

* THESE STATIONS ARE NOT UNDER NWS QUALITY CONTROL. THEY ALSO MAY NOT
  REPORT WEATHER SUCH AS PRECIPITATION OR FOG.

ILZ005-006-012>014-019>023-212200-
NORTHEAST ILLINOIS

CITY           SKY/WX    TMP DP  RH WIND       PRES   REMARKS
OHARE          MOSUNNY   58  44  60 SW13      29.46R
MIDWAY         MOSUNNY   60  46  59 S16G24    29.47R
AURORA         SUNNY     57  45  64 SW12      29.47R
LANSING*       MOSUNNY   58  51  79 SW12G22   29.48S
JOLIET*        MOSUNNY   60  47  62 SW12      29.48R
WAUKEGAN       SUNNY     57  44  62 SW14G23   29.44R
DUPAGE AIRPORT MOSUNNY   57  43  59 SW14      29.47R
WHEELING       MOSUNNY   58  43  57 SW10G23   29.47R
KANKAKEE*      MOSUNNY   60  50  70 SW15      29.50R
MORRIS*        SUNNY     58  44  58 SW15G22   29.47R
LEWIS AIRPORT* MOSUNNY   57  48  72 SW15G21   29.48R
NORTHERLY ISL    N/A     59  46  62 S14         N/A
$$

WIZ051-052-058>065-066-070>072-212200-
SOUTHEAST WISCONSIN

CITY           SKY/WX    TMP DP  RH WIND       PRES   REMARKS
MILWAUKEE      MOSUNNY   51  45  79 SE7       29.44R
KENOSHA*       MOSUNNY   56  44  64 SW12      29.45R
RACINE*        MOSUNNY   50  42  74 S5        29.46R
WAUKESHA       PTSUNNY   52  45  76 SW12      29.44R
WEST BEND      CLOUDY    45  45 100 W6        29.45R FOG
$$

INZ001>003-010>013-019-020-212200-
NORTHWEST INDIANA

CITY           SKY/WX    TMP DP  RH WIND       PRES   REMARKS
GARY*          MOSUNNY   61  46  59 SW16      29.48F
MICHIGAN CITY* NOT AVBL
RENSSELAER*    NOT AVBL
VALPARAISO     MOSUNNY   61  51  70 S12       29.50F
$$

LMZ740>746-212200-
SOUTHERN LAKE MICHIGAN

STATION/POSITION TIME  SKY/WX   TEMP WIND        PRES    VSBY
                                AIR  DIR/SP/G
                 (UTC)          (F)  (DEG/KT/KT) (MB)    (MI)
HARRISON CRIB    2040            56  200/ 21/ 22   N/A
BURNHAM HARBOR   2100            59  200/ 10/ 19   N/A
CALUMET HARBOR   2048            59  200/ 13/ 19  997.7R
BURNS HARBOR     2040            59  190/ 18/ 23  998.6F
MICHIGAN CITY    2040            60  160/ 14/ 17   N/A
$$

ABBREVIATIONS USED IN REMARKS
   TC - TEMPERATURE IN CELSIUS
  WCI - WIND CHILL INDEX
   HX - HEAT INDEX
  VSB - VISIBILITY
$$




USA.gov is the U.S. government's official web portal to all federal, state and local government web resources and services.